Reflectivity
-20 -20 -20 -20 -20 -20 -20 -20 -20 -6 9 -4 -20 5 2 -18 -11 -16 -20 19 43 45 21 8 10 -20 -17 -13 -20 -20 -20 -20 -20 -20 -20 -20 -20 -20 -20 -20 -20 -4 -20 -20 -20 -20 -20 -20 -20
-20 -20 -20 -20 -20 -20 -9 18 -20 -6 8 -20 -20 5 30 18 38 15 -12 10 25 34 19 -1 16 -12 -4 -11 -20 -20 -20 -20 -20 -20 -20 -20 -20 -20 -20 -20 -20 -20 -20 -20 -20 -20 -20 -20 -20
-20 -20 -20 -20 -20 -20 3 -20 9 6 -20 -20 -2 -12 18 44 38 13 39 15 23 24 9 9 12 7 -12 -8 -16 -20 -20 -20 -20 -20 -20 -20 -20 -20 -20 -20 -20 -20 -20 -20 -20 -20 -20 -20 -20
-20 -20 -20 -20 -20 -20 -4 -19 -20 -20 -20 -20 -20 -11 7 2 13 8 26 -6 17 28 32 20 29 3 1 30 -12 -20 -20 -20 -20 -20 -20 -20 -20 -20 -20 -20 -20 -20 -20 -20 -20 -20 -20 -20 -20
-20 -20 -20 -20 -20 -20 -20 -20 -20 -20 -20 16 13 4 25 32 -19 -7 1 25 8 27 34 13 -18 16 32 36 7 -20 -20 -20 -20 -20 -20 -20 -20 -20 -20 -20 -20 -20 -20 -20 -20 -20 -20 -20 -20
-20 -20 -20 -20 -20 -11 -20 -20 -20 -20 -20 -6 15 -12 13 13 -8 -16 -1 11 3 6 -11 5 27 24 20 30 -8 1 7 -16 -20 -20 -20 -20 -20 -20 -20 -20 -20 -20 -20 -20 -20 -20 -20 -20 -20
-20 -20 -20 -20 -19 -19 -5 32 0 15 26 36 39 35 34 17 11 8 -4 4 1 20 10 -1 38 27 30 6 13 4 4 -20 -20 -20 -20 -20 -20 -20 -20 -20 -20 -20 -20 -20 -20 -20 -20 -20 -20
-20 -20 -20 -20 -20 -20 -20 4 24 -20 12 26 27 15 33 -18 3 15 34 -20 4 32 37 28 28 36 28 8 6 19 -19 -10 22 -9 -20 -20 -20 -20 -14 -20 -20 -20 -20 -20 -20 -20 -20 -20 -20
-20 -20 -20 -20 -20 -14 -20 8 10 25 -19 -20 -12 -8 11 20 0 -15 -12 -2 -8 11 36 39 31 37 44 37 26 30 21 18 -2 -20 -19 -9 -8 4 -1 -15 -20 -20 -20 -20 -20 -20 -20 -20 -20
-20 -20 -17 -20 -20 -20 -20 -19 10 5 -18 18 30 -9 6 8 -6 1 -16 -5 15 12 12 29 23 32 33 22 2 16 10 23 10 -6 2 1 -20 -6 -19 7 -7 -11 -13 -4 -20 -20 -20 -20 -20
-20 -20 -20 -20 -20 -20 -20 -8 36 -2 11 22 27 17 0 -20 -20 8 -20 6 4 17 4 21 18 29 16 14 8 1 19 1 5 9 1 17 7 12 10 16 21 21 18 10 -14 -20 -20 -20 -20
-20 -20 -20 -20 -20 -20 -20 19 27 25 7 -9 -5 -0 -20 -12 -3 19 -15 -20 -6 13 28 2 9 -13 16 12 -2 18 22 22 8 10 23 15 8 -4 24 12 18 15 -4 -20 -20 -20 -20 -20 -20
-20 -20 -20 -20 -20 -20 -20 -20 -20 -20 -20 -20 -13 8 6 3 -16 -10 -20 -15 -20 2 11 21 -8 8 -2 12 19 18 29 23 20 22 6 12 14 10 5 11 2 -7 -18 -20 -20 -20 -20 -20 -20
-20 -20 -20 -20 -20 -20 -20 -2 16 41 -18 -20 -13 5 -20 4 9 13 -20 -15 1 5 12 22 26 31 8 21 18 16 13 32 30 20 17 20 12 14 7 -9 -19 -16 -20 -20 -20 -20 -20 -20 -20
-20 -20 -20 -1 -1 -20 3 23 38 19 -8 -20 -20 -20 -20 2 32 1 -20 -20 -9 -2 -7 22 7 23 15 26 36 29 27 30 20 13 24 10 5 3 -20 -20 -20 -20 -20 -20 -20 -20 -20 -20 -20
-20 -20 -20 -8 -19 -20 -20 2 -19 -12 8 -18 -20 -20 -20 -20 -3 -11 -20 -20 -20 -14 0 -11 12 14 20 24 16 26 32 27 23 4 8 -0 -20 -20 -20 21 -20 -20 -20 -20 -20 -20 -20 -20 -20
-20 -20 -20 -20 -20 -20 -20 5 20 -11 -20 -20 -20 -20 -20 -16 3 4 10 -10 -20 -20 -20 -6 -9 6 17 23 26 15 8 -11 -10 -5 -20 -20 -20 34 -20 -20 -20 -20 -20 -20 -20 -20 -20 -20 -20
-8 -17 18 -20 -20 -20 6 18 7 28 -20 -20 -20 -8 -20 -20 -20 -20 -20 -20 -20 -20 -20 -20 -20 -20 -20 -6 -15 -6 -20 -17 -15 -9 16 12 -20 -20 -20 36 -14 -20 -20 -20 -20 -20 -20 -20 -20
-20 -7 15 -2 -20 -20 -20 9 8 -20 -20 -20 -20 1 0 2 0 -2 0 -20 -20 -20 -20 -20 -20 -20 -20 -4 1 -13 -7 -6 -1 10 -6 -20 -20 -20 -20 33 -20 -20 -20 -20 -20 -20 -20 -20 -20
-20 -20 -20 -2 -14 -20 -20 -20 12 -20 -20 -20 -20 -20 -20 -20 -20 -20 -20 -20 -20 -20 -20 -19 -20 -20 -20 -20 -18 -20 -20 -20 -20 -20 -20 -18 -8 -20 -20 -20 27 -20 -20 -20 -20 -20 -20 -20 -20
-20 -20 -16 -12 4 -20 -20 -20 10 -3 -20 -20 -20 -20 -20 -20 -20 -20 -20 -20 -20 -20 -20 -20 -20 -20 -20 -20 -20 -20 -20 -20 -20 -20 -20 11 -20 -20 8 -20 -20 -16 -20 -20 -20 -10 -20 -20 -20
-20 -20 -17 -16 -19 -20 -11 -20 -20 -1 -20 -20 -20 -20 -20 -20 -20 -20 -20 -20 -20 -20 -20 -20 -20 -20 -20 -20 10 -20 -20 -20 -20 -20 -20 16 -20 -20 29 -20 1 -20 -11 -20 -20 -20 -20 -20 -20
-20 -20 -20 -20 -20 -20 -6 -17 3 -20 -20 -19 -20 -20 -20 -20 -20 -20 -20 -20 -20 -20 -20 -20 -20 -20 -20 -20 -20 -19 -20 -20 -20 -18 -20 -19 -20 -20 28 -20 -20 -20 14 15 20 -20 -20 -20 -20
-20 -20 -20 -20 -20 -20 -20 -20 12 -17 6 7 -12 -20 -20 -20 -20 -20 -20 -20 -20 -20 -20 -20 -20 -20 -20 -20 -20 -20 -20 -20 -20 10 17 3 28 -17 -20 -20 18 20 19 -16 15 -13 -16 11 -15
-20 -20 -20 -20 -20 -20 -9 -20 -2 -20 8 10 -13 -20 -20 -20 -20 -20 -20 -20 -20 -20 -20 -20 -20 -20 -20 -20 -20 -20 5 12 -20 -20 27 29 30 17 19 9 -9 18 -4 11 19 3 -6 4 -4
-20 -20 -20 -19 -1 19 5 -19 -20 -20 -20 -20 -20 -20 -20 -20 -20 -20 -20 -20 -20 -20 -20 -20 -20 -20 -20 -20 -20 -10 8 1 -20 -20 -15 13 -6 -10 -18 24 -20 -20 -20 3 25 -17 8 6 15
-20 -20 -17 -16 25 8 25 -20 -16 -20 -20 -20 -20 -20 -20 -20 -20 -20 -19 -20 -20 -20 -20 -20 -20 -20 -20 -20 -20 -20 -20 -20 -20 -20 -20 -20 -8 -4 19 17 5 14 12 5 -17 -20 -7 7 -8
-20 -19 -20 1 20 19 -20 -20 -2 -14 15 -20 -20 -20 -20 -20 -20 -20 30 28 8 -20 -20 -20 -20 33 -20 -20 -20 -20 -20 -20 -13 -20 -20 -20 -20 -20 -20 -20 -20 -20 -20 3 -18 -20 -14 -5 -12
-20 -20 -20 -20 -20 -20 -20 -20 -8 31 -4 6 -20 -20 -20 -20 -20 -20 -20 13 -19 14 31 23 -14 -20 -18 -8 -20 -20 -20 -20 -20 -20 -7 -20 -20 -20 -20 -20 -20 -20 -20 -20 -19 -17 -20 -3 7
-20 -20 -20 -17 -20 -20 -20 -20 -4 10 -19 -4 -20 -20 -20 -20 -20 -20 -20 -20 -20 -20 -20 -19 -19 -20 39 -14 7 -12 35 29 6 -20 -20 -20 -20 -20 -5 -9 -20 -20 -20 -16 -19 13 -7 1 -5
Wind_Speed
10 11 9 10 8 9 17 20 22 21 3 5 17 11 18 24 13 4 0 7 11 6 11 18 22 23 22 22 22 21 21 21 21 21 19 19 18 18 17 17 17 18 20 21 21 21 19 17 12
10 17 8 9 11 14 13 13 17 6 6 6 8 9 8 5 21 5 5 9 15 15 12 16 21 21 21 21 21 20 21 21 21 21 20 18 17 17 16 16 16 18 20 21 20 19 18 13 8
11 15 8 12 13 15 12 9 14 11 4 4 2 16 6 4 10 3 5 12 6 15 13 14 23 22 21 20 20 19 20 20 21 20 19 19 18 18 17 16 16 18 19 21 19 18 15 11 8
10 10 8 11 14 18 14 1 6 13 17 22 17 10 12 8 2 2 12 18 7 4 17 15 19 23 21 17 18 19 19 19 21 19 19 19 19 19 17 17 18 18 19 20 18 17 14 9 8
9 9 12 16 20 17 9 18 6 10 4 3 24 6 6 2 11 11 6 7 20 14 15 13 10 21 24 22 18 18 18 18 19 19 20 18 19 19 17 17 18 19 18 18 17 15 12 9 8
10 12 12 10 13 18 18 24 20 8 9 14 12 11 11 7 8 9 12 6 8 11 11 10 17 17 22 20 19 18 17 18 16 18 19 18 18 18 17 17 17 17 18 16 15 13 11 10 9
13 12 16 16 6 11 4 19 19 9 13 12 14 19 7 3 5 6 6 10 9 7 10 10 8 14 16 17 16 16 18 17 16 17 17 17 17 17 18 17 17 17 17 16 14 13 12 10 8
10 12 20 10 4 2 10 15 12 10 6 10 9 8 10 3 7 6 9 12 10 11 15 13 6 10 11 11 16 15 19 20 17 17 16 15 16 17 17 17 16 16 16 15 14 13 12 9 6
15 12 11 14 3 6 9 2 9 17 7 17 11 13 9 7 8 8 12 12 9 10 11 15 13 11 12 11 14 17 19 20 16 16 16 11 8 11 11 13 13 13 14 13 12 12 11 9 7
10 13 14 8 10 10 13 9 13 11 3 14 8 9 8 8 10 10 10 9 10 7 9 10 10 11 13 11 13 12 14 10 8 9 8 5 7 8 10 10 13 11 10 10 10 10 9 7 3
14 14 10 11 7 10 14 10 15 8 11 13 9 3 9 10 10 10 9 11 9 6 11 9 12 6 5 8 7 6 5 7 6 5 7 8 7 7 5 4 4 4 6 4 4 4 3 2 5
6 14 8 10 12 9 14 2 13 16 12 15 10 8 8 9 9 10 10 10 11 11 8 10 9 9 6 4 4 5 5 4 4 5 7 7 4 6 5 4 5 4 4 5 4 3 5 5 5
11 14 10 9 6 10 11 9 13 15 16 15 11 10 9 8 15 12 12 11 10 12 12 10 10 11 10 9 7 7 7 5 4 6 5 4 4 5 5 4 5 4 4 4 5 5 4 4 6
8 10 13 9 10 7 3 15 24 10 12 13 12 11 10 10 12 11 11 11 12 12 13 13 13 12 12 8 10 5 5 3 1 4 3 1 2 4 4 5 4 4 4 3 5 4 4 3 5
11 15 15 15 9 1 12 10 7 23 4 14 13 11 13 12 12 10 12 12 12 11 14 13 14 11 13 12 6 1 3 2 2 2 7 8 5 5 4 3 3 4 3 4 5 3 3 4 3
15 18 16 10 16 9 13 4 11 13 21 17 15 16 11 14 13 14 14 15 13 13 13 14 13 14 11 9 7 7 2 5 8 6 5 6 4 6 3 3 3 4 4 3 3 4 4 3 3
16 16 15 7 2 8 7 3 17 13 11 17 16 12 13 15 14 14 16 16 16 16 15 13 12 16 18 16 15 16 16 7 5 6 6 7 6 5 3 3 4 5 4 3 4 3 3 3 1
7 12 11 7 6 9 17 13 11 21 11 11 11 12 10 12 19 19 18 17 16 17 15 16 14 16 16 12 11 13 7 8 6 5 5 7 5 6 6 5 6 4 4 4 2 3 1 1 2
16 9 21 8 6 11 19 23 23 23 17 14 11 14 12 12 9 19 18 19 16 18 17 18 19 19 14 12 6 4 4 4 3 4 7 7 5 6 6 4 6 5 5 6 5 3 5 2 2
14 13 18 5 11 5 9 11 21 19 19 17 16 16 17 16 17 17 19 18 18 17 18 17 17 15 10 7 7 5 6 5 7 4 6 5 7 8 7 6 5 6 4 5 5 4 3 4 4
14 16 16 13 6 9 10 12 4 15 16 16 18 18 18 20 22 19 20 18 18 21 20 18 18 17 14 15 10 7 7 7 7 9 8 9 7 8 7 7 5 6 4 5 5 4 4 4 3
15 14 13 10 14 9 6 11 7 18 15 15 14 15 14 17 21 22 21 21 20 20 21 21 19 17 14 14 10 12 9 9 6 5 6 8 9 8 6 7 6 5 4 6 5 5 4 1 2
12 2 10 14 14 14 14 7 5 10 13 18 16 16 16 16 19 24 24 24 24 19 20 20 21 20 18 15 13 8 9 7 4 4 5 6 6 7 5 5 6 5 4 4 8 6 5 3 2
9 11 14 11 11 11 15 11 6 2 6 9 18 19 16 16 18 19 23 24 23 22 19 18 18 18 18 19 17 10 7 7 8 6 3 3 4 4 5 5 5 4 4 4 3 4 6 3 1
9 11 9 9 9 10 17 12 5 11 18 16 15 15 20 18 14 16 20 22 22 24 23 20 22 19 16 20 16 12 10 6 6 8 8 5 4 4 6 7 6 4 3 3 4 5 5 5 2
12 15 8 5 3 10 15 5 7 17 9 5 2 3 10 19 18 17 17 19 21 23 24 22 22 20 17 14 19 16 15 11 8 8 6 7 7 7 9 9 6 6 6 5 6 4 4 4 4
14 15 15 9 3 6 13 7 7 10 6 4 4 2 5 7 19 22 21 19 19 20 22 23 21 20 17 17 16 15 15 13 10 9 9 8 7 4 6 6 6 5 5 8 6 5 5 4 4
16 12 12 7 5 7 8 10 3 4 5 8 4 6 3 1 5 12 12 13 17 21 23 23 23 21 19 14 13 11 10 6 5 7 8 9 6 9 8 7 7 7 7 7 7 5 5 5 3
10 12 8 13 11 6 4 5 7 6 12 3 5 6 5 5 1 4 5 3 8 17 14 21 20 19 16 17 13 12 8 7 7 7 7 8 10 9 9 9 10 10 9 7 5 5 6 6 5
18 17 17 11 9 5 1 7 8 8 16 3 1 4 5 3 2 5 4 2 4 3 3 18 19 16 13 13 15 14 11 9 7 6 5 9 9 9 9 10 10 10 9 7 7 5 3 5 7
Wind_Direction
273 238 230 253 249 235 250 250 250 264 73 0 59 60 343 357 292 4 153 132 126 268 117 132 132 133 132 129 127 127 127 123 119 116 114 113 111 108 106 107 108 108 103 102 100 97 94 91 84
282 286 243 269 252 270 258 321 279 358 89 27 46 108 215 87 331 62 71 154 159 153 154 143 127 129 127 127 128 128 127 123 121 119 119 114 112 107 108 110 114 114 110 107 101 99 96 96 77
261 264 267 237 252 255 285 318 306 43 55 112 92 212 118 115 271 359 40 108 118 137 140 148 134 132 124 128 129 130 127 125 121 123 120 117 113 112 112 117 122 119 112 110 108 103 102 92 65
249 236 239 252 261 280 312 227 333 312 17 355 313 60 101 63 274 20 318 126 89 37 135 124 131 125 124 131 131 130 128 125 122 124 120 116 113 109 109 115 120 120 116 112 110 108 104 82 55
236 258 254 254 265 275 7 335 340 331 149 335 287 94 99 36 333 8 283 199 142 128 123 122 124 130 139 139 131 126 123 121 121 122 116 115 110 107 106 111 114 115 115 115 115 107 96 82 54
270 252 270 275 272 39 22 341 329 314 143 212 264 61 333 75 16 342 12 143 136 122 130 126 125 138 129 133 127 123 121 116 117 116 115 112 110 106 104 104 109 113 114 114 110 104 93 82 54
261 288 281 296 345 40 9 327 289 84 317 347 320 142 189 87 38 37 36 69 101 111 147 122 117 129 115 105 112 116 116 106 107 103 105 107 103 102 103 103 111 117 116 114 112 106 98 85 70
272 286 278 277 57 99 196 216 272 322 136 177 251 344 120 124 95 73 59 60 77 83 83 65 48 73 86 97 104 109 110 98 100 102 101 101 102 103 102 104 111 119 118 117 112 108 102 92 75
272 267 269 297 308 125 207 135 55 305 281 74 49 48 93 126 112 88 73 60 75 109 137 138 133 132 140 137 113 115 107 103 116 118 124 127 125 118 108 98 104 111 114 117 121 126 128 133 158
244 266 307 9 326 3 320 342 166 210 275 62 41 78 85 86 75 69 80 80 69 87 110 108 115 147 145 142 132 125 118 126 130 135 140 98 96 98 92 96 99 103 110 122 138 148 138 167 195
258 261 341 311 35 340 316 33 332 313 48 79 267 162 101 87 78 73 69 83 85 75 103 90 111 90 102 129 139 131 135 135 116 140 87 92 94 101 106 115 112 122 143 141 167 141 187 140 53
292 270 291 307 337 329 299 91 83 31 80 108 126 149 112 109 103 94 84 75 99 91 77 99 107 100 96 84 92 130 115 97 124 123 93 108 118 116 127 151 156 177 191 177 184 124 83 78 78
244 265 306 294 318 283 326 340 335 88 98 96 99 86 66 88 96 94 96 86 88 101 86 78 90 92 88 70 66 69 81 124 113 83 93 100 126 134 167 175 176 188 170 186 99 116 145 119 78
300 292 285 267 264 279 242 27 17 28 105 110 108 95 79 84 97 107 111 104 96 98 104 101 78 77 78 83 78 69 51 58 55 89 80 186 208 175 190 162 186 163 151 179 146 157 165 150 125
268 280 272 280 250 97 98 61 194 252 269 108 104 124 119 119 126 141 129 117 115 114 117 110 108 106 98 92 94 44 125 109 77 143 207 213 207 171 157 169 168 157 187 127 85 125 106 109 111
263 259 265 202 263 99 99 260 265 263 250 126 123 122 136 144 151 127 137 133 131 129 128 132 128 127 117 123 98 72 287 211 195 221 202 202 232 169 213 189 158 147 109 121 150 197 188 128 106
252 257 237 249 70 162 121 90 286 274 224 151 148 147 153 159 151 142 145 148 146 143 151 140 143 142 139 148 165 185 206 188 197 209 201 173 214 168 176 208 185 132 157 177 174 217 160 120 155
269 268 315 265 290 256 148 178 182 286 177 192 152 134 139 149 163 153 155 154 166 151 166 154 156 160 168 173 191 203 172 188 200 230 148 197 211 184 173 237 129 143 190 167 186 154 50 133 163
282 278 256 137 214 222 264 172 195 203 172 185 158 144 158 159 152 156 153 160 174 161 171 168 176 188 195 204 195 191 189 198 214 144 243 173 203 168 179 227 144 179 206 175 179 147 143 239 124
277 275 279 221 191 224 281 284 172 174 173 177 172 169 173 185 163 161 159 169 166 164 173 180 182 184 190 193 198 197 187 196 206 194 194 203 199 191 186 224 177 178 217 163 158 155 179 215 157
259 259 268 343 233 246 263 270 208 169 186 177 175 186 183 175 164 171 169 171 166 171 182 189 185 192 195 197 205 192 187 197 192 198 198 202 193 216 188 201 172 175 222 156 164 179 225 199 174
242 248 289 219 275 269 300 278 190 167 178 181 183 188 191 181 169 170 175 175 185 180 184 194 201 203 197 206 220 190 202 197 184 189 175 195 181 195 207 185 184 185 181 163 172 181 206 206 228
242 58 296 290 264 279 267 242 264 202 194 179 189 192 190 192 183 177 179 182 184 190 187 193 200 205 190 198 217 209 198 184 181 178 183 172 169 154 241 152 176 181 192 194 168 175 175 159 169
232 180 233 258 261 264 267 252 222 125 322 227 183 185 193 194 191 188 179 180 184 189 193 193 204 209 190 194 212 207 190 197 176 179 214 182 163 162 192 213 191 197 209 177 191 147 141 187 119
217 252 242 237 238 242 249 253 223 168 205 236 177 191 185 192 198 192 184 184 185 187 189 192 198 208 209 185 197 197 192 222 191 168 184 205 173 174 185 201 204 186 165 182 191 166 169 160 180
211 232 233 176 312 310 325 256 245 179 171 91 84 281 196 188 188 195 200 185 188 185 185 190 195 200 205 180 188 191 190 201 197 186 173 186 181 182 191 205 159 157 164 202 202 144 136 174 212
216 218 243 95 250 267 241 250 222 173 157 156 187 66 274 229 194 196 198 192 181 183 183 186 189 199 202 198 185 189 204 197 194 196 189 187 181 162 127 148 156 163 198 222 144 142 155 190 196
244 235 243 192 201 221 261 260 6 129 235 155 208 180 104 317 241 209 196 209 187 181 181 183 190 194 193 190 184 187 207 184 193 198 181 183 153 144 156 172 173 182 198 164 155 161 159 186 181
214 238 221 258 237 245 267 285 111 347 338 263 172 141 126 136 96 359 346 328 197 195 194 179 184 186 192 186 166 185 194 191 192 202 187 190 149 162 168 184 194 193 171 168 159 161 170 172 189
247 222 224 244 220 257 288 264 181 189 210 183 235 238 133 71 94 151 158 297 334 316 196 169 182 173 179 169 179 195 179 193 181 186 185 156 163 163 178 186 194 195 160 155 171 170 166 126 108